Location: Boiro
(42.6475°N, 8.8834°W)
Time: 18:54:50
(UTC+01:00)

Transit 2A - Pass Details

Date: 08 December 2021
Orbit: 591 x 967 km, 66.7° (Epoch: 20 January)

Event Time Altitude Azimuth Distance (km) Brightness Sun altitude
Rises 11:13:01 0° 312° (NW) 3,654 8.9 17.6°
Reaches altitude 10° 11:16:49 10° 291° (WNW) 2,676 8.4 18.0°
Maximum altitude 11:20:05 15° 259° (W) 2,304 8.4 18.3°
Drops below altitude 10° 11:23:16 10° 227° (SW) 2,582 9.0 18.6°
Sets 11:26:51 0° 205° (SSW) 3,448 9.9 18.9°
